Weather History for Orlando International, FL

Change the Weather History Date:

Saturday, April 6, 2013

  Actual Average Record
Temperature  
Mean Temperature 67 °F 70 °F  
Max Temperature 79 °F 81 °F 92 °F (1923)
Min Temperature 55 °F 58 °F 39 °F (1944)
Degree Days  
Heating Degree Days 0 1  
Month to date heating degree days 0 6  
Since 1 July heating degree days 461 564  
Cooling Degree Days 2 5  
Month to date cooling degree days 35 30  
Year to date cooling degree days 286 252  
Growing Degree Days 17 (Base 50)    
Moisture  
Dew Point 55 °F    
Average Humidity 66    
Maximum Humidity 86    
Minimum Humidity 45    
Precipitation  
Precipitation 0.01 in 0.10 in 2.11 in (2008)
Month to date precipitation 0.34 0.63  
Year to date precipitation 2.52 9.13  
Sea Level Pressure  
Sea Level Pressure 30.06 in    
Wind  
Wind Speed 12 mph (NNE)    
Max Wind Speed 20 mph    
Max Gust Speed 25 mph    
Visibility 10 miles    
Events Rain    
T = Trace of Precipitation, MM = Missing Value Source: NWS Daily Summary

Daily Weather History Graph

Daily Weather History Graph

Search for Another Location

Airport:

Trip Planner

Search our weather history database for the weather conditions in past years. The results will help you decide how hot, cold, wet, or windy it might be!

Date:

Astronomy

Apr. 06, 2013 Rise Set
Actual Time 7:09 AM EDT 7:46 PM EDT
Civil Twilight 6:45 AM EDT 8:09 PM EDT
Nautical Twilight 6:17 AM EDT 8:37 PM EDT
Astronomical Twilight 5:49 AM EDT 9:06 PM EDT
Moon 4:34 AM EDT (4/6) 4:28 PM EDT (4/6)
Length of Visible Light 13h 24m
Length of Day
12h 36m
Waning Crescent, 15% of the Moon is Illuminated
Apr 6
Waning Crescent
Apr 10
New
Apr 18
First Quarter
Apr 25
Full
May 2
Last Quarter

Hourly Weather History & Observations

Time (EDT) Temp. Dew Point Humidity Pressure Visibility Wind Dir Wind Speed Gust Speed Precip Events Conditions
12:07 AM 57.2 °F 55.4 °F 94% 30.01 in 3.0 mi North 12.7 mph - 0.00 in Rain Light Rain
12:53 AM 57.0 °F 55.9 °F 96% 30.02 in 6.0 mi North 11.5 mph - 0.00 in   Light Drizzle
1:38 AM 57.2 °F 57.2 °F 100% 30.03 in 7.0 mi North 8.1 mph - 0.01 in   Overcast
1:53 AM 57.0 °F 55.9 °F 96% 30.03 in 10.0 mi North 10.4 mph - 0.01 in   Overcast
2:04 AM 57.2 °F 57.2 °F 100% 30.03 in 10.0 mi North 9.2 mph - N/A   Overcast
2:50 AM 57.2 °F 53.6 °F 88% 30.02 in 10.0 mi North 9.2 mph - N/A   Overcast
2:53 AM 57.0 °F 54.0 °F 89% 30.02 in 10.0 mi North 10.4 mph - N/A   Overcast
3:53 AM 57.0 °F 53.1 °F 87% 30.01 in 10.0 mi North 9.2 mph - N/A   Mostly Cloudy
4:34 AM 55.4 °F 51.8 °F 88% 30.01 in 10.0 mi North 6.9 mph - N/A   Scattered Clouds
4:53 AM 55.9 °F 52.0 °F 87% 30.02 in 10.0 mi NNW 10.4 mph - N/A   Scattered Clouds
5:53 AM 55.9 °F 52.0 °F 87% 30.02 in 10.0 mi NNW 8.1 mph - N/A   Clear
6:53 AM 55.0 °F 51.1 °F 86% 30.05 in 10.0 mi NNW 11.5 mph - N/A   Clear
7:53 AM 55.9 °F 52.0 °F 87% 30.06 in 10.0 mi North 9.2 mph - N/A   Clear
8:53 AM 61.0 °F 53.1 °F 75% 30.07 in 10.0 mi North 10.4 mph - N/A   Clear
9:53 AM 66.0 °F 54.0 °F 65% 30.08 in 10.0 mi North 13.8 mph - N/A   Clear
10:53 AM 69.1 °F 54.0 °F 58% 30.09 in 10.0 mi NNE 13.8 mph - N/A   Clear
11:53 AM 72.0 °F 55.0 °F 55% 30.10 in 10.0 mi NE 11.5 mph - N/A   Partly Cloudy
12:53 PM 75.9 °F 53.1 °F 45% 30.09 in 10.0 mi ENE 15.0 mph 20.7 mph N/A   Partly Cloudy
1:53 PM 75.9 °F 55.0 °F 48% 30.07 in 10.0 mi NE 15.0 mph 20.7 mph N/A   Scattered Clouds
2:53 PM 75.0 °F 54.0 °F 48% 30.07 in 10.0 mi NE 11.5 mph 23.0 mph N/A   Scattered Clouds
3:53 PM 78.1 °F 55.0 °F 45% 30.06 in 10.0 mi ENE 16.1 mph 20.7 mph N/A   Scattered Clouds
4:53 PM 75.9 °F 55.9 °F 50% 30.06 in 10.0 mi ENE 13.8 mph - N/A   Scattered Clouds
5:53 PM 73.0 °F 55.0 °F 53% 30.08 in 10.0 mi ENE 16.1 mph 23.0 mph N/A   Partly Cloudy
6:53 PM 73.0 °F 55.9 °F 55% 30.09 in 10.0 mi NE 13.8 mph - N/A   Partly Cloudy
7:53 PM 70.0 °F 55.9 °F 61% 30.11 in 10.0 mi NE 12.7 mph - N/A   Partly Cloudy
8:53 PM 66.9 °F 57.9 °F 73% 30.12 in 10.0 mi NNE 11.5 mph - N/A   Clear
9:53 PM 64.9 °F 57.9 °F 78% 30.14 in 10.0 mi NNE 10.4 mph - N/A   Partly Cloudy
10:53 PM 63.0 °F 57.9 °F 84% 30.15 in 10.0 mi NNE 8.1 mph - N/A   Partly Cloudy
11:53 PM 63.0 °F 57.9 °F 84% 30.14 in 10.0 mi NNE 10.4 mph - N/A   Scattered Clouds